Sacramento, CA

7:06 AM PDT on June 22, 2018 (GMT -0700)
Sacramento Executive

Weather History for KSAC - June, 2018

Change the Weather History Date:

Wednesday, June 13, 2018

  Actual Average Record
Temperature  
Mean Temperature 79 °F -  
Max Temperature 97 °F 87 °F 108 °F (1975)
Min Temperature 61 °F 56 °F 45 °F (1952)
Degree Days  
Heating Degree Days 0    
Cooling Degree Days 14    
Growing Degree Days 28 (Base 50)    
Moisture  
Dew Point 54 °F    
Average Humidity 47    
Maximum Humidity 72    
Minimum Humidity 22    
Precipitation  
Precipitation 0.00 in 0.01 in 0.08 in (1997)
Month to date precipitation 0.00 0.15  
Year to date precipitation 13.54 11.84  
Sea Level Pressure  
Sea Level Pressure 29.74 in    
Wind  
Wind Speed 5 mph (SSW)    
Max Wind Speed 16 mph    
Max Gust Speed 33 mph    
Visibility 10 miles    
Events      
T = Trace of Precipitation, MM = Missing Value Source: NWS Daily Summary

Daily Weather History Graph

Daily Weather History Graph

Search for Another Location

Airport or City:

Astronomy

Jun. 13, 2018 Rise Set
Actual Time 5:41 AM PDT 8:31 PM PDT
Civil Twilight 5:09 AM PDT 9:02 PM PDT
Nautical Twilight 4:29 AM PDT 9:42 PM PDT
Astronomical Twilight 3:44 AM PDT 10:28 PM PDT
Moon 5:46 AM PDT (6/13) 8:33 PM PDT (6/13)
Length of Visible Light 15h 53m
Length of Day
14h 49m
Waning Crescent, 0% of the Moon is Illuminated
Jun 13
Waning Crescent
Jun 13
New
Jun 20
First Quarter
Jun 27
Full
Jul 6
Last Quarter

Hourly Weather History & Observations

Time (PDT) Temp. Heat Index Dew Point Humidity Pressure Visibility Wind Dir Wind Speed Gust Speed Precip Events Conditions
12:53 AM 68.0 °F - 53.1 °F 59% 29.75 in 10.0 mi SSE 4.6 mph - N/A   Clear
1:53 AM 66.9 °F - 54.0 °F 63% 29.75 in 10.0 mi South 5.8 mph - N/A   Clear
2:53 AM 64.9 °F - 53.1 °F 65% 29.74 in 10.0 mi Calm Calm - N/A   Clear
3:53 AM 63.0 °F - 53.1 °F 70% 29.74 in 10.0 mi South 4.6 mph - N/A   Clear
4:53 AM 63.0 °F - 52.0 °F 67% 29.74 in 10.0 mi SSW 4.6 mph - N/A   Clear
5:53 AM 61.0 °F - 52.0 °F 72% 29.75 in 10.0 mi Variable 3.5 mph - N/A   Clear
6:53 AM 63.0 °F - 53.1 °F 70% 29.76 in 10.0 mi SSW 4.6 mph - N/A   Clear
7:53 AM 64.9 °F - 54.0 °F 68% 29.78 in 10.0 mi SSW 4.6 mph - N/A   Clear
8:53 AM 70.0 °F - 55.9 °F 61% 29.79 in 10.0 mi Calm Calm - N/A   Clear
9:53 AM 75.0 °F - 55.9 °F 51% 29.78 in 10.0 mi Calm Calm - N/A   Clear
10:53 AM 82.0 °F 81.6 °F 55.9 °F 41% 29.78 in 10.0 mi Variable 3.5 mph - N/A   Clear
11:53 AM 86.0 °F 84.7 °F 55.9 °F 36% 29.77 in 10.0 mi SSW 4.6 mph - N/A   Clear
12:53 PM 90.0 °F 87.9 °F 55.0 °F 30% 29.76 in 10.0 mi Variable 4.6 mph - N/A   Clear
1:53 PM 93.9 °F 92.0 °F 55.0 °F 27% 29.75 in 10.0 mi Variable 3.5 mph - N/A   Clear
2:53 PM 95.0 °F 93.4 °F 55.9 °F 27% 29.73 in 10.0 mi Variable 5.8 mph - N/A   Clear
3:53 PM 96.1 °F - 52.0 °F 22% 29.71 in 10.0 mi SW 5.8 mph - N/A   Clear
5:53 PM 93.9 °F 91.4 °F 53.1 °F 25% 29.68 in 10.0 mi SW 12.7 mph - N/A   Clear
6:53 PM 89.1 °F 86.7 °F 53.1 °F 29% 29.67 in 10.0 mi SSW 11.5 mph - N/A   Clear
7:53 PM 82.9 °F 82.1 °F 55.9 °F 39% 29.68 in 10.0 mi SW 9.2 mph 19.6 mph N/A   Clear
8:53 PM 75.0 °F - 55.9 °F 51% 29.68 in 10.0 mi SSW 8.1 mph - N/A   Clear
9:53 PM 71.1 °F - 54.0 °F 55% 29.70 in 10.0 mi SSW 8.1 mph - N/A   Clear
10:53 PM 68.0 °F - 53.1 °F 59% 29.71 in 10.0 mi Variable 6.9 mph - N/A   Clear
11:53 PM 66.0 °F - 52.0 °F 60% 29.72 in 10.0 mi SE 5.8 mph - N/A   Clear